Location: Unspecified
(0.0000°N, 0.0000°E)
Time: 07:59:31
(UTC+01:00)

DELTA 2 R/B (1) - Visible Passes

Search period start: 26 October 2014 00:00
Search period end: 04 November 2014 23:00
Orbit: 791 x 803 km, 39.6° (Epoch: 24 October)

Date Brightness Start Highest point End Pass type
(mag) Time Alt. Az. Time Alt. Az. Time Alt. Az.
26 Oct 4.8 20:57:47 10° SW 21:01:02 35° SSW 21:01:02 35° SSW visible
27 Oct 3.7 20:27:14 10° SW 20:32:30 59° SSE 20:32:30 59° SSE visible
28 Oct 3.8 19:56:41 10° SW 20:02:08 53° SE 20:04:01 37° E visible
28 Oct 6.4 21:44:13 10° W 21:44:50 12° W 21:44:50 12° W visible
29 Oct 4.0 19:26:10 10° SSW 19:31:31 46° SE 19:35:33 17° ENE visible
29 Oct 5.6 21:13:21 10° W 21:16:23 22° WNW 21:16:23 22° WNW visible
30 Oct 5.0 20:42:31 10° W 20:47:16 28° NW 20:47:56 28° NNW visible
31 Oct 5.9 05:49:14 10° N 05:52:15 15° NE 05:55:17 10° ENE visible
31 Oct 4.9 20:11:42 10° WSW 20:16:38 32° NW 20:19:29 20° N visible
01 Nov 6.0 05:19:08 10° NNE 05:21:37 13° NE 05:24:07 10° ENE visible
01 Nov 4.8 19:40:55 10° WSW 19:46:01 36° NW 19:51:01 10° NNE visible
02 Nov 6.0 04:49:14 10° NNE 04:50:58 11° NE 04:52:43 10° ENE visible
02 Nov 4.7 19:10:10 10° WSW 19:15:24 41° NW 19:20:37 10° NNE visible
03 Nov 3.8 06:01:23 10° NW 06:06:53 71° NE 06:12:24 10° SE visible
04 Nov 3.9 05:32:27 20° NW 05:36:17 63° NE 05:41:45 10° ESE visible
